Location: Vlissingen
(51.4500°N, 3.5830°E)
Time: 09:07:45
(UTC+01:00)

Daily predictions for brighter satellites

Satellite Brightness Start Highest point End
(mag) Time Altitude Azimuth Time Altitude Azimuth Time Altitude Azimuth
Meteor 1-27 Rocket 4.0 17:07:19 10° S 17:12:58 54° E 17:18:32 10° NNE
Cosmos 1818 4.0 17:09:47 10° SW 17:15:12 61° NW 17:20:39 10° NE
ATLAS 2AS CENTAUR R/B 3.1 17:07:25 10° NW 17:15:36 67° NE 17:23:24 10° ESE
SPOT 3 Rocket 4.0 17:11:52 10° SE 17:16:42 41° ENE 17:21:32 10° N
Cosmos 2154 Rocket 4.0 17:14:37 10° N 17:20:52 79° ENE 17:27:08 10° SSE
Meteor 2-13 Rocket 4.5 17:18:27 10° N 17:24:38 83° ENE 17:30:44 10° SSE
Abrixas 3.4 17:25:33 10° WSW 17:28:23 42° S 17:31:14 10° E
COSMOS 2406 3.3 17:24:59 10° NNW 17:30:44 89° ENE 17:36:30 10° SSE
MOS 1 4.4 17:25:45 10° SE 17:31:15 57° ENE 17:36:48 10° N
Cosmos 2278 Rocket 3.9 17:30:23 10° ESE 17:32:58 13° E 17:35:28 10° ENE
IDEFIX/ARIANE 42P 2.7 17:29:25 10° SE 17:34:26 51° ENE 17:39:28 10° N
Cosmos 1674 Rocket 3.8 17:30:50 10° SSW 17:35:18 78° W 17:39:47 10° N
Ariane Rocket 4.0 17:32:21 10° S 17:37:18 53° W 17:42:16 10° NNW
CZ-4 R/B 1.4 17:36:31 10° SSE 17:40:39 66° ENE 17:44:46 10° N
SJ-12 4.0 17:37:00 10° SSE 17:41:01 56° ENE 17:45:05 10° N
Meteor 1-5 Rocket 4.1 17:36:00 10° N 17:41:22 67° ENE 17:46:51 10° SSE
Okean 1 Rocket 3.6 17:38:26 10° NNW 17:42:45 62° W 17:47:02 10° S
Cosmos 494 Rocket 4.2 17:38:08 10° NNW 17:43:12 47° ENE 17:48:17 10° SE
Okean 3 3.5 17:42:05 10° S 17:46:19 67° E 17:50:34 10° NNE
Cosmos 1937 Rocket 4.5 17:41:25 10° SW 17:46:29 46° WNW 17:51:32 10° NNE
Cosmos 1975 3.9 17:44:07 10° NNE 17:47:32 25° ENE 17:50:54 10° SE
ASTEX 1 4.0 17:42:37 10° N 17:47:35 63° W 17:52:30 10° SSW
COSMOS 2487 4.0 17:45:01 10° N 17:47:38 18° NE 17:49:23 14° E
Cosmos 1125 Rocket 3.6 17:42:36 10° SSW 17:47:52 69° ESE 17:53:11 10° NNE
Cosmos 1544 Rocket 3.8 17:44:08 10° N 17:48:27 46° ENE 17:52:45 10° SSE
COSMO-SKYMED 1 4.1 17:46:58 14° ENE 17:48:39 16° E 17:51:24 10° SE
Thor Agena Rocket 4.0 17:44:01 10° NNE 17:48:56 42° E 17:53:53 10° S
Cosmos 2297 Rocket 4.3 17:48:19 10° WNW 17:51:30 15° NNW 17:54:43 10° N
Cosmos 2082 Rocket 3.0 17:46:41 10° NNW 17:51:38 30° NE 17:56:35 10° ESE
Cosmos 2227 Rocket 4.4 17:53:20 10° NW 17:55:52 13° NNW 17:58:24 10° N
Cosmos 1833 Rocket 3.6 17:51:09 10° NNW 17:56:02 28° NE 18:00:29 12° E
Cosmos 1975 Rocket 3.0 17:52:59 10° S 17:57:14 61° E 18:01:31 10° NNE
SL-8 Rocket 3.9 17:51:47 10° N 17:57:58 72° ENE 18:04:07 10° SSE
BREEZE-M DEB (TANK) 3.4 17:59:45 10° SSW 18:01:28 19° SSE 18:02:25 15° ESE
Cosmos 2251 Rocket 3.5 17:56:11 10° NNW 18:01:35 72° ENE 18:06:54 10° SSE
Meteor 2-19 Rocket 4.4 18:00:06 10° N 18:06:12 75° ENE 18:12:15 10° SSE
Cosmos 2366 rocket 4.0 18:02:05 10° N 18:08:28 66° ENE 18:14:44 10° SSE
CZ-2C R/B 4.1 18:05:39 10° N 18:10:03 64° WNW 18:14:29 10° SSW
Cosmos 2218 Rocket 3.9 18:05:01 10° N 18:11:22 76° ENE 18:17:37 10° SSE
CZ-3B DEB 3.3 18:08:17 10° S 18:12:16 33° ESE 18:17:31 18° ENE
Cosmos 1959 Rocket 4.4 18:07:25 10° N 18:13:37 78° E 18:19:50 10° SSE
Genesis I 3.4 18:09:54 10° NW 18:13:47 51° NE 18:16:36 17° ESE
Cosmos 1536 Rocket 4.3 18:09:54 10° SSE 18:13:53 33° E 18:16:37 17° NE
BREEZE M DEB (TANK) 2.7 18:13:05 10° W 18:15:50 69° S 18:21:00 16° E
Cosmos 2181 Rocket 4.1 18:11:45 10° S 18:18:08 88° W 18:24:38 10° N
AQUARIUS 4.5 18:14:17 10° S 18:18:45 69° WSW 18:23:16 10° NNW
Cosmos 1484 Rocket 2.8 18:15:30 10° SSE 18:19:08 51° ENE 18:22:47 10° N
Cosmos 2263 Rocket 3.1 18:14:52 10° WSW 18:20:15 45° NW 18:25:42 10° NNE
ISS -1.9 18:17:33 10° SSW 18:20:23 27° SSE 18:21:18 23° ESE
ERBS 3.4 18:17:50 10° WNW 18:20:58 32° N 18:22:05 25° NNE
YAOGAN 1 2.9 18:17:04 10° S 18:21:23 70° WSW 18:25:44 10° NNW
Timation 2 Rocket 4.3 18:15:25 10° NNW 18:22:02 54° NE 18:28:46 10° SE
CZ-2C R/B 2.9 18:18:43 10° S 18:23:40 66° WSW 18:28:49 10° NNW
Cosmos 1238 Rocket 2.3 18:21:55 10° SSE 18:24:45 45° E 18:25:11 41° ENE
CRYOSAT 2 4.4 18:20:31 10° N 18:25:28 84° W 18:30:22 10° S
SL-24 DEB 4.4 18:23:46 10° NNE 18:28:28 53° E 18:33:04 10° SSE
Cosmos 1809 Rocket 4.5 18:22:35 10° N 18:28:40 55° ENE 18:34:40 10° SSE
Meteor 1-18 Rocket 4.3 18:23:16 10° S 18:28:45 56° E 18:34:23 10° NNE
Cosmos 1500 3.2 18:30:02 10° N 18:33:47 53° ENE 18:37:33 10° SSE
SMAP 4.0 18:29:28 10° S 18:34:01 52° W 18:38:35 10° NNW
SL-27 R/B 4.0 18:33:34 10° NW 18:37:03 40° WSW 18:40:29 10° S
SKYMED 2 3.9 18:35:36 31° NE 18:37:09 43° E 18:41:17 10° S
Resurs 01 Rocket 3.4 18:39:42 17° NNE 18:39:42 17° NNE 18:41:00 10° N
COSMOS 2441 4.4 18:32:46 10° SSE 18:37:39 85° WSW 18:42:37 10° NNW
Cosmos 1455 Rocket 3.2 18:33:45 10° NNW 18:38:09 76° W 18:42:33 10° S
GEOS 3 Rocket 3.8 18:35:43 10° SE 18:40:50 73° SW 18:45:59 10° NW
USA 234 3.2 18:38:57 26° ENE 18:43:00 84° SSE 18:49:34 10° WSW
Cosmos 1821 Rocket 4.2 18:37:49 10° N 18:43:36 41° ENE 18:49:19 10° SE
Cosmos 1844 Rocket 2.6 18:40:23 10° SSW 18:45:59 86° ESE 18:49:41 23° NNE
ATLAS CENTAUR R/B 3.5 18:43:35 10° WNW 18:46:38 17° NNW 18:48:16 14° N
Okean 1 3.3 18:42:57 10° S 18:46:56 58° E 18:47:58 43° NE
MSX 4.3 18:43:17 10° S 18:49:00 64° WSW 18:54:45 10° NNW
NOSS 3-4 (A) 3.9 18:44:37 10° NW 18:51:19 55° NE 18:54:38 31° E
NOSS 3-4 (C) 3.9 18:44:44 10° NW 18:51:25 54° NE 18:54:42 31° E
BREEZE-M DEB (TANK) 3.5 18:50:27 10° W 18:57:45 73° S 18:58:28 54° ESE
Cosmos 1844 3.5 18:53:12 10° SSW 18:58:47 82° ESE 19:01:31 31° NE
Meteor 2-21 4.4 18:53:20 10° N 18:59:35 85° E 19:05:45 10° S
Cosmos 1812 2.8 18:57:22 10° SSW 19:01:14 73° WNW 19:02:55 32° N
ALOS 4.1 19:05:48 17° N 19:05:48 17° N 19:07:04 10° N
NOSS 3-3 (A) 4.3 18:56:56 10° SSW 19:02:53 47° ESE 19:04:28 40° E
NOSS 3-3 (C) 4.3 18:57:02 10° SSW 19:02:59 47° ESE 19:04:32 40° E
Abrixas 3.8 19:00:56 10° W 19:03:16 36° SW 19:03:16 36° SW
Cosmos 1346 Rocket 3.8 19:02:09 10° S 19:04:27 32° SSE 19:04:27 32° SSE
Spot 2 Rocket 3.8 19:06:56 46° NE 19:06:56 46° NE 19:11:20 10° N
ATLAS 2AS CENTAUR R/B 4.1 18:58:52 10° NW 19:06:27 45° WSW 19:13:37 10° S
Nadezhda 3 Rocket 3.9 19:05:02 10° S 19:11:09 66° E 19:17:24 10° NNE
Cosmos 2278 Rocket 2.1 19:10:25 10° SSW 19:16:02 72° ESE 19:17:21 52° NE
Meteor 1-19 Rocket 4.4 19:11:37 10° SSE 19:16:46 50° ESE 19:16:46 50° ESE
FengYun 1-2 T 4.2 19:17:21 53° ESE 19:18:11 58° ENE 19:23:46 10° N
Meteor 2-14 Rocket 4.4 19:16:37 10° N 19:22:50 87° W 19:28:59 10° S
COSMOS 2487 3.4 19:19:57 10° NNW 19:23:27 48° WSW 19:23:29 48° WSW
Cosmos 1975 4.4 19:20:24 10° NNW 19:24:11 37° W 19:27:55 10° SSW
COSMO-SKYMED 1 2.8 19:24:11 47° N 19:25:17 68° WNW 19:29:36 10° SSW
FENGYUN 3A 4.2 19:32:00 42° NNE 19:32:00 42° NNE 19:35:42 10° N
Meteor 1-13 Rocket 4.1 19:27:16 10° S 19:32:56 79° E 19:34:04 59° NNE
Cosmos 2082 Rocket 2.4 19:30:34 10° NW 19:36:12 68° WSW 19:39:14 28° S
Cosmos 1833 Rocket 2.8 19:34:52 10° NNW 19:40:31 73° WSW 19:42:16 45° S
FALCON 9 R/B 4.4 19:35:53 10° WSW 19:49:32 27° SSW 19:52:36 21° SSE
ISS -0.2 19:53:18 10° WSW 19:53:59 15° WSW 19:53:59 15° WSW
Cosmos 2263 Rocket 4.4 20:02:26 10° WNW 20:05:44 15° NNW 20:07:35 14° N
Cosmos 1934 Rocket 4.1 20:00:03 10° NNW 20:06:11 69° W 20:09:13 31° S
Resurs 01 Rocket 4.2 20:17:17 14° NNW 20:17:17 14° NNW 20:17:56 10° NNW
CZ-3A R/B 3.4 20:12:50 10° W 20:21:05 59° NW 20:21:05 59° NW
USA 234 3.6 20:26:18 58° NNW 20:26:18 58° NNW 20:32:18 10° W
Cosmos 1844 Rocket 4.4 20:26:01 10° W 20:30:37 25° NW 20:31:22 24° NNW
NOSS 3-4 (A) 4.3 20:35:40 10° NW 20:42:07 53° WSW 20:42:07 53° WSW
NOSS 3-4 (C) 4.3 20:35:47 10° NW 20:42:11 53° WSW 20:42:11 53° WSW
CZ-3B DEB 3.4 20:40:04 10° WSW 20:46:13 80° NNW 20:46:19 80° N
Cosmos 2278 Rocket 4.1 20:55:48 10° WSW 20:59:14 26° WNW 20:59:14 26° WNW
